sat.trackr.live / text

‹ back to catalog

STARLINK-35363

NORAD 66178 · 2025-243B

PAYLOAD ACTIVE UNKNOWN

§ Identity

Operator
Country
US
Launch date
2025-10-26
Launch site
AFETR
Launch vehicle
Mass (kg)
RCS (m²)

Purposes: comms

External: N2YO · Heavens-Above · Gunter

§ Orbital elements

Epoch: 2026-09-20T14:11:11.941152Z

Period
93.85 min
Inclination
53.1580°
Eccentricity
0.0001097
Mean motion
15.34407834 rev/d
Perigee alt
461.9 km
Apogee alt
463.4 km
Semi-major
6,840.8 km
B*
5.8023e-4
RAAN
57.1459°
Arg perigee
80.1177°
Mean anomaly
279.9950°
Rev number
5,053

§ Raw data

STARLINK-353631 66178U 25243B   26263.59111043  .00019283  00000+0  58023-3 0  99902 66178  53.1580  57.1459 0001097  80.1177 279.9950 15.34407834 50537

JSON: /api/v1/satellites/66178 · /tle

For live sub-satellite position, see the globe view (requires WebGL).

§ Visibility from observer

Set your observer location to see the next 7 days of passes ≥ 10°. The values pass through the URL so the page stays shareable.

No JS? Fill the form by hand. The geolocation button needs JavaScript.